TimeAKDT,TemperatureF,Dew PointF,Humidity,Sea Level PressureIn,VisibilityMPH,Wind Direction,Wind SpeedMPH,Gust SpeedMPH,PrecipitationIn,Events,Conditions,WindDirDegrees,DateUTC
12:53 AM,33.1,32.0,96,30.36,10.0,WNW,6.9,-,0.00,,Overcast,290,2012-10-09 08:53:00
1:20 AM,33.8,32.0,93,30.30,10.0,West,6.9,-,N/A,,Overcast,280,2012-10-09 09:20:00
1:35 AM,33.8,32.0,93,30.30,10.0,NW,5.8,81.7,N/A,,Overcast,320,2012-10-09 09:35:00
1:42 AM,33.8,32.0,93,30.30,10.0,WNW,5.8,-,N/A,,Overcast,290,2012-10-09 09:42:00
1:53 AM,33.1,32.0,96,30.37,10.0,WNW,4.6,-,N/A,,Overcast,300,2012-10-09 09:53:00
2:53 AM,33.1,32.0,96,30.37,10.0,West,5.8,-,N/A,,Overcast,270,2012-10-09 10:53:00
3:53 AM,32.0,32.0,100,30.38,10.0,West,4.6,-,N/A,,Overcast,280,2012-10-09 11:53:00
4:53 AM,32.0,30.9,96,30.38,10.0,WNW,3.5,-,N/A,,Overcast,290,2012-10-09 12:53:00
5:53 AM,32.0,30.9,96,30.38,10.0,West,4.6,-,N/A,,Overcast,270,2012-10-09 13:53:00
6:53 AM,32.0,30.9,96,30.38,10.0,NW,3.5,-,N/A,,Overcast,320,2012-10-09 14:53:00
7:51 AM,30.2,30.2,100,30.31,0.8,NW,3.5,-,N/A,,Mist,320,2012-10-09 15:51:00
7:53 AM,30.9,30.9,100,30.39,0.5,NW,4.6,-,N/A,Fog,Light Freezing Fog,310,2012-10-09 15:53:00
8:53 AM,30.9,30.9,100,30.40,0.2,NNW,3.5,-,N/A,Fog,Light Freezing Fog,330,2012-10-09 16:53:00
9:39 AM,30.2,30.2,100,30.33,1.0,NNW,3.5,-,N/A,,Mist,340,2012-10-09 17:39:00
9:53 AM,30.9,30.0,96,30.40,0.5,NNW,3.5,-,N/A,Fog,Light Freezing Fog,340,2012-10-09 17:53:00
10:00 AM,30.2,30.2,100,30.33,1.0,NNW,5.8,-,N/A,,Overcast,330,2012-10-09 18:00:00
10:04 AM,30.2,30.2,100,30.33,3.0,NNW,3.5,-,N/A,,Overcast,330,2012-10-09 18:04:00
10:53 AM,30.9,30.9,100,30.41,4.0,Calm,Calm,-,N/A,,Overcast,0,2012-10-09 18:53:00
11:05 AM,30.2,30.2,100,30.33,0.8,NW,3.5,-,N/A,,Mist,320,2012-10-09 19:05:00
11:18 AM,30.2,30.2,100,30.34,1.2,North,3.5,-,N/A,,Overcast,360,2012-10-09 19:18:00
11:26 AM,30.2,30.2,100,30.34,3.0,Calm,Calm,-,N/A,,Overcast,0,2012-10-09 19:26:00
11:53 AM,30.9,30.9,100,30.42,6.0,NW,3.5,-,N/A,,Overcast,320,2012-10-09 19:53:00
12:28 PM,32.0,30.2,93,30.35,1.5,Calm,Calm,-,N/A,,Overcast,0,2012-10-09 20:28:00
12:53 PM,32.0,30.9,96,30.43,2.5,Calm,Calm,-,N/A,,Overcast,0,2012-10-09 20:53:00
1:09 PM,32.0,30.2,93,30.35,5.0,Calm,Calm,-,N/A,,Overcast,0,2012-10-09 21:09:00
1:53 PM,33.1,30.9,92,30.43,5.0,Calm,Calm,-,N/A,,Overcast,0,2012-10-09 21:53:00
2:53 PM,35.1,32.0,89,30.43,10.0,ENE,6.9,-,N/A,,Overcast,60,2012-10-09 22:53:00
3:08 PM,35.6,32.0,87,30.35,10.0,ENE,5.8,-,N/A,,Overcast,70,2012-10-09 23:08:00
3:13 PM,35.6,32.0,87,30.35,10.0,ENE,4.6,-,N/A,,Overcast,70,2012-10-09 23:13:00
3:21 PM,35.6,33.8,93,30.35,10.0,ENE,4.6,-,N/A,,Overcast,60,2012-10-09 23:21:00
3:33 PM,35.6,32.0,87,30.35,10.0,NE,5.8,-,N/A,,Overcast,50,2012-10-09 23:33:00
3:53 PM,36.0,33.1,89,30.42,10.0,ENE,5.8,-,N/A,,Overcast,70,2012-10-09 23:53:00
4:53 PM,36.0,32.0,86,30.42,10.0,ENE,4.6,-,N/A,,Overcast,60,2012-10-10 00:53:00
5:53 PM,36.0,33.1,89,30.42,10.0,NE,5.8,-,N/A,,Overcast,50,2012-10-10 01:53:00
6:53 PM,35.1,32.0,89,30.42,10.0,East,4.6,-,0.00,,Mostly Cloudy,80,2012-10-10 02:53:00
7:53 PM,33.1,28.9,85,30.42,10.0,ENE,6.9,-,N/A,,Mostly Cloudy,70,2012-10-10 03:53:00
8:53 PM,32.0,28.0,85,30.41,10.0,East,9.2,-,N/A,,Scattered Clouds,80,2012-10-10 04:53:00
9:53 PM,30.9,26.1,82,30.40,10.0,East,11.5,-,N/A,,Clear,90,2012-10-10 05:53:00
10:53 PM,30.0,24.1,79,30.39,10.0,East,9.2,-,N/A,,Clear,80,2012-10-10 06:53:00
11:53 PM,28.9,23.0,78,30.38,10.0,East,9.2,-,N/A,,Clear,90,2012-10-10 07:53:00